AirNav   Air Wisconsin Up To $57,000 Bonus
 
 1394 users online  

15XS Toy Airpark
Liverpool, Texas, USA

GOING TO LIVERPOOL?


FAA INFORMATION EFFECTIVE 09 SEPTEMBER 2021

Location

FAA Identifier: 15XS
Lat/Long: 29-19-57.8590N 095-20-02.7710W
29-19.964317N 095-20.046183W
29.3327386,-95.3341031
(estimated)
Elevation: 36 ft. / 11 m (estimated)
Variation: 05E (1995)
From city: 5 miles NW of LIVERPOOL, TX
Time zone: UTC -5 (UTC -6 during Standard Time)
Zip code: 77511

Airport Operations

Airport use: Private use. Permission required prior to landing
Activation date: 06/1997
Control tower: no
ARTCC: HOUSTON CENTER
FSS: MONTGOMERY COUNTY FLIGHT SERVICE STATION
Attendance: UNATNDD
Segmented circle: no

Airport Communications

WX ASOS at LVJ (12 nm NE): 118.525 (281-992-1853)
WX AWOS-3 at AXH (13 nm NW): 123.625 (281-431-6572)
WX ASOS at LBX (15 nm SW): 119.925 (979-849-3319)
WX AWOS-3 at EFD (19 nm NE): 135.575 (713-847-4430)
WX ASOS at HOU (19 nm N): PHONE 713-847-1462

Nearby radio navigation aids

VOR radial/distance  VOR name  Freq  Var
VUHr273/24.7SCHOLES VOR/DME113.0006E
MHFr240/33.2TRINITY VOR/DME113.6007E
IAHr174/37.5HUMBLE VORTAC116.6005E

Airport Services

Runway Information

Runway 6/24

Dimensions: 1915 x 70 ft. / 584 x 21 m
Surface: turf
RUNWAY 6  RUNWAY 24
Traffic pattern: leftleft
Displaced threshold: 525 ft.no
Obstructions: 37 ft. pline4 ft. fence

Airport Ownership and Management from official FAA records

Ownership: Privately-owned
Owner: JOHN & SANDRA RICE
8815 COUNTY RD 511
ROSHARON, TX 77583
Phone 713-331-3174
Manager: JOHN & SANDRA RICE
8815 COUNTY RD 511
ROSHARON, TX 77583
Phone 713-331-3174

Airport Operational Statistics

Aircraft based on the field: 2
Single engine airplanes: 2
    

Additional Remarks

FOR CD CTC HOUSTON ARTCC AT 281-230-5622.

Instrument Procedures

There are no published instrument procedures at 15XS.

Some nearby airports with instrument procedures:

KLVJ - Pearland Regional Airport (12 nm NE)
KAXH - Houston Southwest Airport (13 nm NW)
KLBX - Texas Gulf Coast Regional Airport (15 nm SW)
KEFD - Ellington Airport (19 nm NE)
KHOU - William P Hobby Airport (19 nm N)
 
Loc | Ops | Rwys | IFR | FBO | Links
Com | Nav | Svcs | Stats | Notes
Area around 15XS (Toy Airpark)
 
Road maps at: MapQuest Bing Google
 
Aerial photo
No photo
 
Sectional chart

 
Airport distance calculator
Flying to Toy Airpark? Find the distance to fly.

From to 15XS

Sunrise and sunset
Times for 23-Sep-2021
 Local
(UTC-5)
 Zulu
(UTC)
Morning civil twilight06:4711:47
Sunrise07:1112:11
Sunset19:1600:16
Evening civil twilight19:4000:40

Current date and time
Zulu (UTC)  23-Sep-2021 21:45:42
Local (UTC-5)  23-Sep-2021 16:45:42
 
METAR
KLVJ 
12nm N 
232053Z AUTO 00000KT 10SM CLR 27/09 A3005 RMK AO2 SLP175 T02670089 56024
KAXH 
13nm NW 
232135Z AUTO 00000KT 10SM CLR 28/09 A3004 RMK AO2 T02760090
KLBX 
15nm SW 
232053Z AUTO 09007KT 10SM CLR 27/12 A3004 RMK AO2 SLP173 T02720117 56020
KHOU 
18nm N 
232053Z 00000KT 10SM CLR 28/08 A3003 RMK AO2 SLP174 T02780083 56024
KEFD 
18nm NE 
232050Z 06005G10KT 10SM CLR 26/10 A3004
KSGR 
24nm NW 
232053Z 09005KT 10SM CLR 29/08 A3003 RMK AO2 SLP170 T02890083 56025
TAF
KLBX 
15nm SW 
231733Z 2318/2418 09008KT P6SM SKC FM232300 VRB03KT P6SM SKC
KHOU 
18nm N 
231733Z 2318/2418 06007KT P6SM SKC FM240000 VRB04KT P6SM SKC FM241500 10006KT P6SM FEW250
KEFD 
18nm NE 
232000Z 2320/2502 VRB06KT 9999 SKC QNH3001INS TX27/2419Z TN17/2412Z
NOTAMs
Click for the latest NOTAMs
NOTAMs are issued by the DoD/FAA and will open in a separate window not controlled by AirNav.

 

 
 

Would you like to see your business listed on this page?

 If your business provides an interesting product or service to pilots, flight crews, aircraft, or users of the Toy Airpark, you should consider listing it here.  To start the listing process, click on the button below
 
Add a business
 

Other Pages about Toy Airpark

Update a link
 
Copyright © AirNav, LLC. All rights reserved. Privacy Policy  Contact